Weather in Stavky

Ukraine / Zhytomyr Region     50°24′48″N   29°13′27″E
temp.,
°C
wind,
m/s
gust,
m/s
humid.,
%
clouds,
%
prec.,
mm/h
press.,
hPa
HPBL,
m
16 june, wed
wed1600:00+16n37937 0.0 1013130
03:00+14n38944 0.0 1014146
06:00+15n410950 0.0 1013246
09:00+19nne587819 0.0 1014513
12:00+23nne67565 0.0 10151463
15:00+25nne67509 0.0 10142233
18:00+23n696422 0.0 1014907
21:00+19nne410821 0.1 1016278
17 june, thu
thu1700:00+16nne39920 0.0 1017181
03:00+15n49940 0.0 1018172
06:00+15nne49921 0.0 1018212
09:00+21ne577227 0.0 1019555
12:00+25ene685518 0.0 10201690
15:00+26ene685111 0.0 10201896
18:00+24ene57580 0.0 10201099
21:00+19ene49820 0.0 1021223
18 june, fri
fri1800:00+17ne411930 0.0 1022246
03:00+15ne37950 0.0 1022155
06:00+14ne39940 0.0 1023215
09:00+20ene47710 0.0 1023495
12:00+23e67570 0.0 10231062
15:00+25ene56561 0.0 10221362
18:00+24ene576511 0.0 10221154
21:00+19e47840 0.1 1022181
19 june, sat
sat1900:00+17e38930 0.0 1023150
03:00+15e36950 0.0 1023126
06:00+15ene36950 0.0 1023142
09:00+20ene46740 0.0 1023579
12:00+24e566019 0.0 10221497
15:00+25ese575666 0.1 10211718
18:00+23e587138 0.8 1020857
21:00+19ese378895 1.2 1021140
20 june, sun
sun2000:00+17ene369296 0.0 1021102
03:00+18ene3690100 0.0 1021159
06:00+18ene3792100 0.0 1021219
09:00+22e57765 0.0 1020603
12:00+25e565996 0.0 10201198
15:00+27e565078 0.0 10181594
18:00+26ene576082 0.0 1018981
21:00+20e368270 0.0 1018133